| time (UTC) | temp F | wind direction | speed MPH | gust MPH | rain 1hr in | rain 24hr in | rain mn in | humidity % | barometer mb |
| 20260503012214 | 37 | 224 | 1.0 | 5.0 | 0.00 | 0.00 | 0.00 | 58 | 1013.4 |
| 20260503011503 | 37 | 249 | 1.0 | 4.0 | 0.00 | 0.00 | 0.00 | 58 | 1013.4 |
| 20260503011003 | 38 | 262 | 1.0 | 3.0 | 0.00 | 0.00 | 0.00 | 58 | 1013.4 |
| 20260503010503 | 38 | 285 | 2.0 | 7.0 | 0.00 | 0.00 | 0.00 | 58 | 1013.3 |
| 20260503010003 | 38 | 202 | 2.0 | 7.0 | 0.00 | 0.00 | 0.00 | 58 | 1013.4 |
| 20260503005503 | 38 | 213 | 2.0 | 6.0 | 0.00 | 0.00 | 0.00 | 57 | 1013.3 |
| 20260503005003 | 38 | 227 | 2.0 | 8.0 | 0.00 | 0.00 | 0.00 | 57 | 1013.2 |
| 20260503004503 | 38 | 241 | 3.0 | 12.0 | 0.00 | 0.01 | 0.00 | 56 | 1013.2 |
| 20260503004003 | 38 | 255 | 4.0 | 12.0 | 0.00 | 0.01 | 0.00 | 56 | 1013.3 |
| 20260503003503 | 38 | 251 | 5.0 | 13.0 | 0.00 | 0.01 | 0.00 | 56 | 1013.2 |
| 20260503003003 | 38 | 244 | 3.0 | 13.0 | 0.00 | 0.01 | 0.00 | 55 | 1013.1 |
| 20260503002503 | 38 | 251 | 3.0 | 11.0 | 0.00 | 0.01 | 0.00 | 55 | 1013.1 |
| 20260503002003 | 38 | 268 | 3.0 | 11.0 | 0.00 | 0.01 | 0.00 | 55 | 1013.1 |
| 20260503001503 | 38 | 272 | 4.0 | 14.0 | 0.00 | 0.01 | 0.00 | 55 | 1013.1 |
| 20260503001003 | 39 | 269 | 5.0 | 14.0 | 0.00 | 0.01 | 0.00 | 54 | 1013.0 |
| 20260503000503 | 39 | 266 | 4.0 | 11.0 | 0.00 | 0.01 | 0.00 | 54 | 1013.0 |
| 20260503000003 | 39 | 278 | 3.0 | 10.0 | 0.00 | 0.01 | 0.00 | 54 | 1013.0 |
| 20260502235503 | 39 | 274 | 4.0 | 12.0 | 0.00 | 0.01 | 0.00 | 54 | 1013.0 |
| 20260502235003 | 39 | 268 | 6.0 | 12.0 | 0.00 | 0.02 | 0.00 | 53 | 1012.9 |
| 20260502234503 | 39 | 268 | 5.0 | 14.0 | 0.00 | 0.02 | 0.00 | 54 | 1012.9 |
| 20260502234214 | 39 | 267 | 4.0 | 14.0 | 0.00 | 0.02 | 0.00 | 54 | 1012.8 |
| 20260502233503 | 39 | 272 | 3.0 | 9.0 | 0.00 | 0.03 | 0.00 | 53 | 1012.8 |
| 20260502233003 | 39 | 274 | 3.0 | 9.0 | 0.00 | 0.03 | 0.00 | 53 | 1012.8 |
| 20260502232503 | 40 | 268 | 4.0 | 9.0 | 0.00 | 0.03 | 0.00 | 53 | 1012.8 |
| 20260502232003 | 40 | 267 | 4.0 | 12.0 | 0.00 | 0.04 | 0.00 | 52 | 1012.7 |
| 20260502231503 | 40 | 266 | 4.0 | 12.0 | 0.00 | 0.04 | 0.00 | 52 | 1012.7 |
| 20260502231003 | 40 | 269 | 3.0 | 9.0 | 0.00 | 0.04 | 0.00 | 52 | 1012.7 |
| 20260502230503 | 40 | 288 | 4.0 | 10.0 | 0.00 | 0.04 | 0.00 | 52 | 1012.7 |
| 20260502230003 | 40 | 293 | 4.0 | 11.0 | 0.00 | 0.04 | 0.00 | 51 | 1012.7 |
| 20260502225503 | 40 | 303 | 3.0 | 11.0 | 0.00 | 0.05 | 0.00 | 50 | 1012.7 |
| 20260502225003 | 40 | 314 | 2.0 | 8.0 | 0.00 | 0.05 | 0.00 | 51 | 1012.8 |
| 20260502224712 | 40 | 310 | 3.0 | 9.0 | 0.00 | 0.05 | 0.00 | 51 | 1012.9 |
| 20260502224003 | 40 | 306 | 4.0 | 11.0 | 0.00 | 0.05 | 0.00 | 50 | 1012.8 |
| 20260502223503 | 41 | 310 | 4.0 | 11.0 | 0.00 | 0.06 | 0.00 | 49 | 1012.8 |
| 20260502223003 | 41 | 312 | 4.0 | 10.0 | 0.00 | 0.06 | 0.00 | 49 | 1012.7 |
| 20260502222503 | 41 | 313 | 4.0 | 10.0 | 0.00 | 0.06 | 0.00 | 49 | 1012.7 |
| 20260502222003 | 41 | 319 | 4.0 | 11.0 | 0.00 | 0.06 | 0.00 | 49 | 1012.7 |
| 20260502221503 | 41 | 322 | 3.0 | 11.0 | 0.00 | 0.07 | 0.00 | 49 | 1012.7 |
| 20260502221003 | 41 | 325 | 3.0 | 11.0 | 0.00 | 0.07 | 0.00 | 48 | 1012.7 |
| 20260502220503 | 41 | 319 | 4.0 | 11.0 | 0.00 | 0.07 | 0.00 | 48 | 1012.6 |
| 20260502220003 | 41 | 294 | 4.0 | 11.0 | 0.00 | 0.07 | 0.00 | 49 | 1012.6 |
| 20260502215503 | 41 | 284 | 3.0 | 11.0 | 0.00 | 0.07 | 0.00 | 49 | 1012.6 |
| 20260502215003 | 42 | 307 | 1.0 | 9.0 | 0.00 | 0.08 | 0.00 | 48 | 1012.7 |
| 20260502214503 | 41 | 336 | 3.0 | 9.0 | 0.00 | 0.08 | 0.00 | 50 | 1012.6 |
| 20260502214003 | 41 | 335 | 5.0 | 14.0 | 0.00 | 0.08 | 0.00 | 50 | 1012.5 |
| 20260502213503 | 41 | 316 | 5.0 | 14.0 | 0.00 | 0.09 | 0.00 | 49 | 1012.4 |
| 20260502213213 | 41 | 309 | 4.0 | 10.0 | 0.00 | 0.09 | 0.00 | 48 | 1012.3 |
| 20260502212503 | 42 | 315 | 3.0 | 9.0 | 0.00 | 0.09 | 0.00 | 48 | 1012.3 |
| 20260502212003 | 42 | 316 | 3.0 | 9.0 | 0.00 | 0.10 | 0.00 | 48 | 1012.3 |
| 20260502211714 | 42 | 317 | 3.0 | 9.0 | 0.00 | 0.10 | 0.00 | 49 | 1012.3 |
| 20260502211003 | 42 | 313 | 3.0 | 13.0 | 0.00 | 0.10 | 0.00 | 47 | 1012.3 |
| 20260502210503 | 42 | 317 | 4.0 | 13.0 | 0.00 | 0.10 | 0.00 | 46 | 1012.2 |
| 20260502210004 | 42 | 295 | 5.0 | 13.0 | 0.00 | 0.11 | 0.00 | 44 | 1012.1 |
| 20260502205503 | 43 | 270 | 4.0 | 13.0 | 0.00 | 0.11 | 0.00 | 40 | 1012.1 |
| 20260502205003 | 43 | 262 | 4.0 | 12.0 | 0.00 | 0.11 | 0.00 | 42 | 1012.2 |
| 20260502204503 | 43 | 292 | 3.0 | 8.0 | 0.00 | 0.11 | 0.00 | 41 | 1012.1 |
| 20260502204003 | 43 | 311 | 4.0 | 12.0 | 0.00 | 0.11 | 0.00 | 42 | 1012.1 |
| 20260502203503 | 43 | 290 | 5.0 | 12.0 | 0.00 | 0.11 | 0.00 | 42 | 1012.1 |
| 20260502203003 | 44 | 279 | 4.0 | 10.0 | 0.00 | 0.11 | 0.00 | 40 | 1012.1 |
| 20260502202503 | 44 | 290 | 4.0 | 10.0 | 0.00 | 0.11 | 0.00 | 40 | 1012.1 |
| 20260502202003 | 43 | 292 | 4.0 | 10.0 | 0.00 | 0.11 | 0.00 | 41 | 1012.2 |
| 20260502201503 | 43 | 283 | 3.0 | 10.0 | 0.00 | 0.12 | 0.00 | 41 | 1012.2 |
| 20260502201214 | 43 | 283 | 3.0 | 10.0 | 0.00 | 0.12 | 0.00 | 41 | 1012.2 |
| 20260502200503 | 43 | 278 | 5.0 | 13.0 | 0.00 | 0.12 | 0.00 | 44 | 1012.2 |
| 20260502200003 | 43 | 268 | 4.0 | 13.0 | 0.00 | 0.12 | 0.00 | 39 | 1012.3 |
| 20260502195503 | 43 | 256 | 3.0 | 13.0 | 0.00 | 0.12 | 0.00 | 41 | 1012.3 |
| 20260502195003 | 43 | 276 | 3.0 | 9.0 | 0.00 | 0.13 | 0.00 | 41 | 1012.3 |
| 20260502194503 | 43 | 280 | 4.0 | 9.0 | 0.00 | 0.13 | 0.00 | 42 | 1012.4 |
| 20260502194003 | 43 | 285 | 5.0 | 14.0 | 0.00 | 0.13 | 0.00 | 40 | 1012.4 |
| 20260502193503 | 44 | 292 | 3.0 | 14.0 | 0.00 | 0.13 | 0.00 | 38 | 1012.4 |
| 20260502193003 | 44 | 271 | 3.0 | 13.0 | 0.00 | 0.14 | 0.00 | 42 | 1012.4 |
| 20260502192503 | 44 | 272 | 4.0 | 13.0 | 0.00 | 0.14 | 0.00 | 40 | 1012.5 |
| 20260502192003 | 44 | 282 | 4.0 | 12.0 | 0.00 | 0.14 | 0.00 | 38 | 1012.5 |
| 20260502191503 | 44 | 279 | 5.0 | 15.0 | 0.00 | 0.14 | 0.00 | 40 | 1012.5 |
| 20260502191214 | 44 | 277 | 5.0 | 15.0 | 0.00 | 0.14 | 0.00 | 40 | 1012.6 |
| 20260502190503 | 44 | 280 | 4.0 | 13.0 | 0.00 | 0.14 | 0.00 | 38 | 1012.5 |
| 20260502190004 | 44 | 278 | 3.0 | 11.0 | 0.00 | 0.14 | 0.00 | 38 | 1012.4 |
| 20260502185503 | 44 | 282 | 4.0 | 11.0 | 0.00 | 0.14 | 0.00 | 39 | 1012.4 |
| 20260502185214 | 44 | 281 | 4.0 | 11.0 | 0.00 | 0.14 | 0.00 | 41 | 1012.5 |
| 20260502184503 | 44 | 268 | 5.0 | 11.0 | 0.00 | 0.14 | 0.00 | 39 | 1012.5 |
| 20260502184003 | 44 | 276 | 4.0 | 11.0 | 0.00 | 0.14 | 0.00 | 39 | 1012.4 |
| 20260502183503 | 44 | 274 | 5.0 | 14.0 | 0.00 | 0.14 | 0.00 | 39 | 1012.3 |
| 20260502182713 | 45 | 268 | 3.0 | 14.0 | 0.00 | 0.14 | 0.00 | 39 | 1012.6 |
| 20260502182003 | 45 | 249 | 3.0 | 10.0 | 0.00 | 0.14 | 0.00 | 40 | 1012.6 |
| 20260502181503 | 45 | 283 | 3.0 | 10.0 | 0.00 | 0.14 | 0.00 | 40 | 1012.5 |
| 20260502181003 | 45 | 263 | 3.0 | 8.0 | 0.00 | 0.14 | 0.00 | 39 | 1012.5 |
| 20260502180712 | 45 | 251 | 3.0 | 12.0 | 0.00 | 0.14 | 0.00 | 38 | 1012.5 |
| 20260502170503 | 45 | 246 | 4.0 | 12.0 | 0.00 | 0.14 | 0.00 | 39 | 1012.3 |
| 20260502164213 | 45 | 184 | 3.0 | 11.0 | 0.00 | 0.14 | 0.00 | 40 | 1012.5 |
| 20260502163503 | 44 | 250 | 6.0 | 16.0 | 0.00 | 0.14 | 0.00 | 41 | 1012.5 |
| 20260502163003 | 45 | 238 | 7.0 | 17.0 | 0.00 | 0.14 | 0.00 | 39 | 1012.6 |
| 20260502162714 | 45 | 224 | 6.0 | 17.0 | 0.00 | 0.14 | 0.00 | 40 | 1012.5 |
| 20260502162003 | 45 | 228 | 6.0 | 15.0 | 0.00 | 0.14 | 0.00 | 39 | 1012.5 |
| 20260502161503 | 44 | 270 | 5.0 | 15.0 | 0.00 | 0.14 | 0.00 | 40 | 1012.6 |
| 20260502161003 | 44 | 220 | 6.0 | 16.0 | 0.00 | 0.14 | 0.00 | 38 | 1012.7 |
| 20260502160503 | 44 | 210 | 8.0 | 18.0 | 0.00 | 0.14 | 0.00 | 38 | 1012.7 |
| 20260502152003 | 43 | 238 | 6.0 | 15.0 | 0.00 | 0.14 | 0.00 | 45 | 1012.6 |
| 20260502151503 | 43 | 225 | 5.0 | 13.0 | 0.00 | 0.14 | 0.00 | 51 | 1012.6 |
| 20260502151212 | 43 | 228 | 5.0 | 12.0 | 0.00 | 0.14 | 0.00 | 48 | 1012.7 |
| 20260502150503 | 43 | 266 | 4.0 | 12.0 | 0.00 | 0.14 | 0.00 | 48 | 1012.7 |
| 20260502130503 | 39 | 249 | 3.0 | 12.0 | 0.00 | 0.14 | 0.00 | 58 | 1013.5 |
| 20260502130214 | 38 | 247 | 4.0 | 12.0 | 0.00 | 0.14 | 0.00 | 58 | 1013.5 |
| 20260502123503 | 37 | 249 | 4.0 | 10.0 | 0.00 | 0.14 | 0.00 | 58 | 1013.6 |
| 20260502123003 | 37 | 235 | 4.0 | 10.0 | 0.00 | 0.14 | 0.00 | 59 | 1013.6 |
| 20260502122712 | 37 | 240 | 4.0 | 10.0 | 0.00 | 0.14 | 0.00 | 59 | 1013.6 |
| 20260502122003 | 37 | 250 | 5.0 | 15.0 | 0.00 | 0.14 | 0.00 | 60 | 1013.6 |
| 20260502121503 | 37 | 234 | 4.0 | 14.0 | 0.00 | 0.14 | 0.00 | 59 | 1013.6 |
| 20260502121003 | 36 | 250 | 5.0 | 14.0 | 0.00 | 0.14 | 0.00 | 60 | 1013.8 |
| 20260502120712 | 36 | 255 | 5.0 | 14.0 | 0.00 | 0.14 | 0.00 | 59 | 1013.8 |
| 20260502115503 | 35 | 259 | 6.0 | 12.0 | 0.00 | 0.14 | 0.00 | 60 | 1013.7 |
| 20260502115003 | 35 | 263 | 6.0 | 12.0 | 0.00 | 0.14 | 0.00 | 59 | 1013.7 |
| 20260502114503 | 35 | 255 | 5.0 | 11.0 | 0.00 | 0.14 | 0.00 | 59 | 1013.5 |
| 20260502114003 | 35 | 244 | 4.0 | 10.0 | 0.00 | 0.14 | 0.00 | 59 | 1013.6 |
| 20260502113714 | 35 | 253 | 4.0 | 10.0 | 0.00 | 0.14 | 0.00 | 59 | 1013.5 |
| 20260502113003 | 34 | 256 | 5.0 | 10.0 | 0.00 | 0.14 | 0.00 | 59 | 1013.6 |
| 20260502112714 | 34 | 256 | 5.0 | 12.0 | 0.00 | 0.14 | 0.00 | 59 | 1013.6 |
| 20260502112003 | 34 | 264 | 3.0 | 12.0 | 0.00 | 0.14 | 0.00 | 59 | 1013.6 |
| 20260502111503 | 34 | 262 | 4.0 | 9.0 | 0.00 | 0.14 | 0.00 | 59 | 1013.5 |
| 20260502111003 | 34 | 260 | 5.0 | 10.0 | 0.00 | 0.14 | 0.00 | 59 | 1013.3 |
| 20260502110503 | 34 | 259 | 5.0 | 12.0 | 0.00 | 0.14 | 0.00 | 59 | 1013.3 |
| 20260502110003 | 34 | 255 | 5.0 | 13.0 | 0.00 | 0.14 | 0.00 | 59 | 1013.3 |
| 20260502105503 | 33 | 257 | 5.0 | 14.0 | 0.00 | 0.14 | 0.00 | 59 | 1013.2 |
| 20260502105003 | 33 | 258 | 3.0 | 14.0 | 0.00 | 0.14 | 0.00 | 60 | 1013.2 |
| 20260502104503 | 33 | 256 | 4.0 | 11.0 | 0.00 | 0.14 | 0.00 | 60 | 1013.2 |
| 20260502104003 | 33 | 258 | 4.0 | 11.0 | 0.00 | 0.14 | 0.00 | 60 | 1013.1 |
| 20260502103503 | 33 | 254 | 4.0 | 11.0 | 0.00 | 0.14 | 0.00 | 60 | 1013.0 |
| 20260502103003 | 33 | 255 | 3.0 | 12.0 | 0.00 | 0.14 | 0.00 | 60 | 1013.1 |
| 20260502102714 | 33 | 256 | 4.0 | 12.0 | 0.00 | 0.14 | 0.00 | 60 | 1013.0 |
| 20260502101503 | 33 | 264 | 5.0 | 13.0 | 0.00 | 0.14 | 0.00 | 60 | 1012.8 |
| 20260502101003 | 33 | 259 | 3.0 | 13.0 | 0.00 | 0.14 | 0.00 | 60 | 1012.8 |
| 20260502100503 | 33 | 259 | 2.0 | 10.0 | 0.00 | 0.14 | 0.00 | 60 | 1012.8 |
| 20260502091503 | 34 | 267 | 2.0 | 10.0 | 0.00 | 0.14 | 0.00 | 61 | 1012.5 |
| 20260502091003 | 34 | 251 | 2.0 | 7.0 | 0.00 | 0.14 | 0.00 | 61 | 1012.5 |
| 20260502090503 | 34 | 235 | 1.0 | 4.0 | 0.00 | 0.14 | 0.00 | 61 | 1012.4 |
| 20260502071003 | 36 | 263 | 4.0 | 9.0 | 0.00 | 0.14 | 0.00 | 58 | 1011.6 |
| 20260502070503 | 36 | 262 | 4.0 | 11.0 | 0.00 | 0.14 | 0.00 | 58 | 1011.6 |
| 20260502070213 | 37 | 262 | 3.0 | 11.0 | 0.00 | 0.14 | 0.00 | 58 | 1011.8 |
| 20260502065503 | 37 | 260 | 2.0 | 7.0 | 0.00 | 0.14 | 0.00 | 58 | 1011.7 |
| 20260502065003 | 37 | 259 | 2.0 | 7.0 | 0.00 | 0.14 | 0.00 | 58 | 1011.6 |
| 20260502064503 | 37 | 269 | 2.0 | 7.0 | 0.00 | 0.14 | 0.00 | 58 | 1011.6 |
| 20260502064003 | 37 | 268 | 3.0 | 7.0 | 0.00 | 0.14 | 0.00 | 58 | 1011.5 |
| 20260502063503 | 38 | 263 | 4.0 | 9.0 | 0.00 | 0.14 | 0.00 | 58 | 1011.5 |
| 20260502063003 | 38 | 264 | 4.0 | 10.0 | 0.00 | 0.14 | 0.00 | 58 | 1011.6 |
| 20260502062503 | 38 | 263 | 4.0 | 11.0 | 0.00 | 0.14 | 0.00 | 58 | 1011.7 |
| 20260502062003 | 38 | 259 | 6.0 | 12.0 | 0.00 | 0.14 | 0.00 | 57 | 1011.6 |
| 20260502061213 | 38 | 260 | 6.0 | 13.0 | 0.00 | 0.14 | 0.00 | 57 | 1011.9 |
| 20260502060503 | 38 | 259 | 6.0 | 13.0 | 0.00 | 0.14 | 0.00 | 57 | 1012.0 |
| 20260502060213 | 38 | 257 | 5.0 | 13.0 | 0.00 | 0.14 | 0.00 | 57 | 1012.0 |
| 20260502055503 | 38 | 256 | 6.0 | 15.0 | 0.00 | 0.14 | 0.00 | 57 | 1011.9 |
| 20260502055003 | 38 | 257 | 5.0 | 15.0 | 0.00 | 0.14 | 0.00 | 57 | 1012.0 |
| 20260502054503 | 38 | 255 | 6.0 | 17.0 | 0.00 | 0.14 | 0.00 | 57 | 1011.7 |
| 20260502054213 | 38 | 260 | 6.0 | 17.0 | 0.00 | 0.14 | 0.00 | 57 | 1011.8 |
| 20260502053503 | 38 | 271 | 6.0 | 15.0 | 0.00 | 0.14 | 0.00 | 56 | 1011.3 |
| 20260502053213 | 38 | 268 | 6.0 | 15.0 | 0.00 | 0.14 | 0.00 | 56 | 1011.5 |
| 20260502052503 | 38 | 262 | 5.0 | 12.0 | 0.00 | 0.14 | 0.00 | 56 | 1011.8 |
| 20260502052003 | 38 | 263 | 4.0 | 14.0 | 0.00 | 0.14 | 0.00 | 56 | 1011.9 |
| 20260502051503 | 38 | 263 | 3.0 | 14.0 | 0.00 | 0.14 | 0.00 | 56 | 1011.9 |
| 20260502051003 | 38 | 259 | 4.0 | 12.0 | 0.00 | 0.14 | 0.00 | 56 | 1011.9 |
| 20260502050503 | 38 | 260 | 4.0 | 12.0 | 0.00 | 0.14 | 0.00 | 56 | 1011.9 |
| 20260502050213 | 38 | 256 | 4.0 | 12.0 | 0.00 | 0.14 | 0.00 | 56 | 1011.9 |
| 20260502045714 | 38 | 253 | 3.0 | 9.0 | 0.00 | 0.14 | 0.00 | 56 | 1011.9 |
| 20260502045003 | 38 | 263 | 3.0 | 8.0 | 0.00 | 0.14 | 0.00 | 56 | 1011.7 |
| 20260502044504 | 39 | 260 | 2.0 | 8.0 | 0.00 | 0.14 | 0.00 | 56 | 1011.8 |
| 20260502044213 | 39 | 258 | 2.0 | 9.0 | 0.00 | 0.14 | 0.00 | 57 | 1011.9 |
| 20260502043503 | 39 | 258 | 2.0 | 9.0 | 0.00 | 0.14 | 0.00 | 58 | 1011.9 |
| 20260502043212 | 39 | 255 | 2.0 | 8.0 | 0.00 | 0.14 | 0.00 | 58 | 1011.9 |
| 20260502042503 | 39 | 257 | 2.0 | 7.0 | 0.00 | 0.14 | 0.00 | 60 | 1011.8 |
| 20260502042003 | 39 | 261 | 2.0 | 7.0 | 0.00 | 0.14 | 0.00 | 60 | 1011.9 |
| 20260502041503 | 39 | 261 | 1.0 | 4.0 | 0.00 | 0.14 | 0.00 | 61 | 1011.8 |
| 20260502041214 | 39 | 258 | 1.0 | 4.0 | 0.00 | 0.14 | 0.00 | 61 | 1011.8 |
| 20260502040503 | 39 | 264 | 2.0 | 9.0 | 0.00 | 0.14 | 0.00 | 61 | 1011.8 |
| 20260502040003 | 39 | 267 | 2.0 | 9.0 | 0.00 | 0.14 | 0.00 | 61 | 1011.7 |
| 20260502035503 | 39 | 269 | 2.0 | 7.0 | 0.00 | 0.14 | 0.14 | 62 | 1011.7 |
| 20260502035003 | 39 | 261 | 2.0 | 7.0 | 0.00 | 0.14 | 0.14 | 62 | 1011.7 |
| 20260502034503 | 39 | 263 | 2.0 | 4.0 | 0.00 | 0.14 | 0.14 | 62 | 1011.8 |
| 20260502034003 | 39 | 261 | 2.0 | 8.0 | 0.00 | 0.14 | 0.14 | 62 | 1011.8 |
| 20260502033503 | 39 | 255 | 2.0 | 8.0 | 0.00 | 0.14 | 0.14 | 62 | 1011.8 |
| 20260502033003 | 39 | 266 | 2.0 | 6.0 | 0.00 | 0.14 | 0.14 | 62 | 1011.9 |
| 20260502032713 | 39 | 275 | 1.0 | 4.0 | 0.00 | 0.14 | 0.14 | 62 | 1011.8 |
| 20260502032003 | 39 | 248 | 1.0 | 4.0 | 0.00 | 0.14 | 0.14 | 62 | 1011.8 |
| 20260502031503 | 39 | 242 | 1.0 | 4.0 | 0.00 | 0.14 | 0.14 | 62 | 1011.8 |
| 20260502031214 | 39 | 242 | 1.0 | 4.0 | 0.00 | 0.14 | 0.14 | 62 | 1011.8 |
| 20260502030503 | 39 | 253 | 0.0 | 2.0 | 0.00 | 0.14 | 0.14 | 62 | 1011.9 |
| 20260502030003 | 39 | 250 | 0.0 | 2.0 | 0.00 | 0.14 | 0.14 | 62 | 1012.0 |
| 20260502025503 | 39 | 213 | 1.0 | 4.0 | 0.00 | 0.14 | 0.14 | 62 | 1011.9 |
| 20260502025003 | 39 | 212 | 1.0 | 4.0 | 0.00 | 0.14 | 0.14 | 62 | 1011.9 |
| 20260502024713 | 39 | 193 | 0.0 | 4.0 | 0.00 | 0.14 | 0.14 | 62 | 1011.9 |
| 20260502024003 | 39 | 229 | 0.0 | 3.0 | 0.00 | 0.14 | 0.14 | 63 | 1011.9 |
| 20260502023503 | 39 | 216 | 0.0 | 3.0 | 0.00 | 0.14 | 0.14 | 63 | 1011.9 |
| 20260502023214 | 40 | 216 | 0.0 | 3.0 | 0.00 | 0.14 | 0.14 | 63 | 1011.9 |
| 20260502022503 | 40 | 190 | 0.0 | 2.0 | 0.00 | 0.14 | 0.14 | 63 | 1011.8 |
| 20260502022003 | 40 | 190 | 0.0 | 2.0 | 0.00 | 0.14 | 0.14 | 63 | 1011.7 |
| 20260502021503 | 39 | 190 | 0.0 | 2.0 | 0.00 | 0.14 | 0.14 | 63 | 1011.8 |
| 20260502021003 | 39 | 197 | 0.0 | 2.0 | 0.00 | 0.14 | 0.14 | 62 | 1011.7 |
| 20260502020503 | 40 | 336 | 0.0 | 1.0 | 0.00 | 0.14 | 0.14 | 62 | 1011.7 |
| 20260502020003 | 40 | 0 | 0.0 | 0.0 | 0.00 | 0.14 | 0.14 | 62 | 1011.7 |
| 20260502015503 | 40 | 0 | 0.0 | 0.0 | 0.00 | 0.14 | 0.14 | 62 | 1011.8 |
| 20260502015003 | 40 | 0 | 0.0 | 0.0 | 0.00 | 0.14 | 0.14 | 62 | 1011.7 |
| 20260502014503 | 40 | 345 | 0.0 | 2.0 | 0.01 | 0.14 | 0.14 | 62 | 1011.8 |
| 20260502014003 | 40 | 345 | 1.0 | 3.0 | 0.01 | 0.14 | 0.14 | 63 | 1011.6 |
| 20260502013503 | 40 | 345 | 0.0 | 3.0 | 0.01 | 0.14 | 0.14 | 62 | 1011.6 |
| 20260502013003 | 40 | 344 | 0.0 | 2.0 | 0.01 | 0.14 | 0.14 | 62 | 1011.5 |
| 20260502012503 | 40 | 343 | 0.0 | 3.0 | 0.01 | 0.14 | 0.14 | 62 | 1011.4 |